Overview Statistics Trail Chart Weather Telemetry Raw packets
 

This is the latest recevied weather packets stored in our database for station/object JF7BTK-10. If no packets are shown the sender has not sent any weather packets the latest 10 day(s).

<< 31 32 33 34 35 36 37 >>
Time Temp. Humidity Pressure Rain* Wind** Luminosity Snow
1788295388 21.67° C 99% 1005.8 hPa 0.25 mm - - -
1788294488 21.67° C 99% 1005.5 hPa 0.25 mm - - -
1788293587 21.67° C 99% 1005.6 hPa 1.78 mm - - -
1788292688 21.11° C 99% 1005.6 hPa 2.29 mm - - -
1788291788 21.11° C 99% 1005.9 hPa 2.54 mm - - -
1788290888 21.11° C 99% 1005.7 hPa 2.79 mm - - -
1788289988 21.11° C 99% 1005.5 hPa 2.29 mm - - -
1788289089 21.11° C 99% 1006 hPa 2.29 mm - - -
1788288189 21.11° C 99% 1005.9 hPa 3.05 mm - - -
1788287289 20.56° C 99% 1006.2 hPa 3.56 mm - - -
1788286388 20.56° C 99% 1006.8 hPa 3.81 mm - - -
1788285488 20.56° C 99% 1006.1 hPa 5.08 mm - - -
1788284589 20.56° C 99% 1006.6 hPa 5.84 mm - - -
1788283689 20.56° C 99% 1006.6 hPa 6.35 mm - - -
1788282789 20.56° C 99% 1006.2 hPa 5.59 mm - - -
1788282052 20° C 99% 1007 hPa 8.38 mm - - -
1788281889 20° C 99% 1007 hPa 7.87 mm - - -
1788280989 20.56° C 99% 1007 hPa 6.1 mm - - -
1788280089 20° C 99% 1007.1 hPa 5.59 mm - - -
1788279189 20.56° C 99% 1006.8 hPa 10.16 mm - - -
1788278289 20.56° C 99% 1006.4 hPa 7.37 mm - - -
1788277389 20° C 99% 1005.9 hPa 7.11 mm - - -
1788276489 20° C 99% 1006.3 hPa 7.37 mm - - -
1788275588 20° C 99% 1006.1 hPa 5.84 mm - - -
1788274851 20.56° C 99% 1006 hPa 5.59 mm - - -

* Rain latest hour (hover to see other rain measurements)
** Current wind speed in m/s (hover to see current wind gust speed)